User: anonymous   Login
Location: Unspecified
(0.0000°N, 0.0000°E)
Time: 01:37:52
(UTC+00:00)
Language:

Meteor 2-13 - Orbit

View from above orbital plane
View from above orbital plane
View from above satellite
View from above satellite

Ground track
Ground track

The orbit data is extracted from the following two-line orbital elements,

1 16408U 85119A   18021.58798749 +.00000011 +00000-0 -37136-5 0  9990
2 16408 082.5363 180.0227 0017080 108.9971 251.3042 13.85345802621116
Epoch (UTC): 21 January 2018 14:06:42
Eccentricity: 0.0017080
inclination: 82.5363°
perigee height: 932 km
apogee height: 957 km
right ascension of ascending node: 180.0227°
argument of perigee: 108.9971°
revolutions per day: 13.85345802
mean anomaly at epoch: 251.3042°
orbit number at epoch: 62111

The dashed part of the orbit path shows where the satellite is in the earth's shadow,  

DLR